When you browse on this site, cookies collect data to enhance your experience and personalize the content and advertising you see.
Visit our Privacy Policy to learn more. By continuing to use the site, you agree to this use of cookies and data.
  • In Austria
  • List of Countries
  • For 7 days
  • Water Temperature
  • Satellite Maps
  • Weather Map
  • News
  • Weather Widgets
  • user-avatar
    Login

    Hourly Weather Cookeville

    Today, 24 June, Monday

    Time Temperature Precipitation Wind Pressure Humidity
    00:00 +22°C° 0 mm 3 mps 729 mmHg 88%
    01:00 +22°C° 0.9 mm 3 mps 729 mmHg 91%
    02:00 +22°C° 0.9 mm 3 mps 728 mmHg 94%
    03:00 +22°C° 0.9 mm 4 mps 728 mmHg 96%
    04:00 +22°C° 0.4 mm 3 mps 728 mmHg 96%
    05:00 +22°C° 0.4 mm 3 mps 728 mmHg 96%
    06:00 +24°C° 0 mm 2 mps 729 mmHg 92%
    07:00 +25°C° 0.3 mm 3 mps 729 mmHg 87%
    08:00 +26°C° 0.3 mm 4 mps 728 mmHg 82%
    09:00 +27°C° 0.3 mm 5 mps 728 mmHg 77%
    10:00 +27°C° 0.4 mm 6 mps 728 mmHg 78%
    11:00 +27°C° 0.4 mm 7 mps 728 mmHg 80%
    12:00 +27°C° 0.4 mm 7 mps 728 mmHg 81%
    13:00 +27°C° 0.6 mm 6 mps 728 mmHg 82%
    14:00 +26°C° 0.6 mm 5 mps 727 mmHg 82%
    15:00 +26°C° 0.6 mm 4 mps 727 mmHg 83%
    16:00 +25°C° 0.2 mm 4 mps 728 mmHg 85%
    17:00 +25°C° 0.2 mm 3 mps 728 mmHg 88%
    18:00 +24°C° 0.2 mm 3 mps 729 mmHg 90%
    19:00 +24°C° 0.1 mm 3 mps 729 mmHg 92%
    20:00 +23°C° 0.1 mm 2 mps 729 mmHg 94%
    21:00 +21°C° 0.1 mm 2 mps 729 mmHg 96%
    22:00 +20°C° 0.1 mm 2 mps 729 mmHg 96%
    23:00 +20°C° 0.1 mm 2 mps 730 mmHg 97%

    Tomorrow, 25 June, Tuesday

    Time Temperature Precipitation Wind Pressure Humidity
    00:00 +20°C° 0.1 mm 2 mps 730 mmHg 97%
    01:00 +20°C° 0.1 mm 2 mps 730 mmHg 97%
    02:00 +19°C° 0.1 mm 2 mps 730 mmHg 97%
    03:00 +19°C° 0.1 mm 2 mps 730 mmHg 97%
    04:00 +21°C° 0 mm 1 mps 731 mmHg 97%
    05:00 +21°C° 0 mm 1 mps 731 mmHg 97%
    06:00 +21°C° 0 mm 1 mps 732 mmHg 97%
    07:00 +23°C° 0 mm 1 mps 732 mmHg 91%
    08:00 +24°C° 0 mm 1 mps 732 mmHg 85%
    09:00 +26°C° 0 mm 2 mps 733 mmHg 79%
    10:00 +27°C° 0 mm 2 mps 733 mmHg 73%
    11:00 +28°C° 0 mm 2 mps 733 mmHg 66%
    12:00 +29°C° 0 mm 3 mps 734 mmHg 59%
    13:00 +29°C° 0 mm 3 mps 733 mmHg 60%
    14:00 +29°C° 0 mm 2 mps 733 mmHg 60%
    15:00 +29°C° 0 mm 2 mps 733 mmHg 60%
    16:00 +28°C° 0 mm 2 mps 733 mmHg 67%
    17:00 +26°C° 0 mm 2 mps 733 mmHg 74%
    18:00 +25°C° 0 mm 1 mps 733 mmHg 81%
    19:00 +24°C° 0 mm 1 mps 733 mmHg 84%
    20:00 +22°C° 0 mm 1 mps 733 mmHg 87%
    21:00 +21°C° 0 mm 1 mps 733 mmHg 90%
    22:00 +20°C° 0 mm 1 mps 733 mmHg 90%
    23:00 +20°C° 0 mm 1 mps 734 mmHg 90%

    Day after tomorrow, 26 June, Wednesday

    Time Temperature Precipitation Wind Pressure Humidity
    00:00 +19°C° 0 mm 1 mps 734 mmHg 90%
    01:00 +19°C° 0 mm 1 mps 734 mmHg 88%
    02:00 +19°C° 0 mm 1 mps 734 mmHg 87%
    03:00 +19°C° 0 mm 1 mps 734 mmHg 86%
    04:00 +20°C° 0 mm 1 mps 734 mmHg 84%
    05:00 +20°C° 0 mm 1 mps 735 mmHg 83%
    06:00 +21°C° 0 mm 1 mps 735 mmHg 82%
    07:00 +24°C° 0 mm 1 mps 735 mmHg 75%
    08:00 +26°C° 0 mm 1 mps 736 mmHg 68%
    09:00 +27°C° 0 mm 0 mps 736 mmHg 61%
    10:00 +28°C° 0 mm 0 mps 736 mmHg 57%
    11:00 +31°C° 0 mm 1 mps 736 mmHg 53%
    12:00 +33°C° 0 mm 1 mps 736 mmHg 49%
    13:00 +32°C° 0 mm 1 mps 735 mmHg 49%
    14:00 +32°C° 0 mm 1 mps 735 mmHg 50%
    15:00 +32°C° 0 mm 1 mps 735 mmHg 51%
    16:00 +31°C° 0 mm 1 mps 735 mmHg 58%
    17:00 +30°C° 0 mm 1 mps 735 mmHg 66%
    18:00 +28°C° 0 mm 1 mps 735 mmHg 74%
    19:00 +26°C° 0.2 mm 1 mps 735 mmHg 78%
    20:00 +25°C° 0.2 mm 1 mps 735 mmHg 83%
    21:00 +23°C° 0.2 mm 1 mps 735 mmHg 87%
    22:00 +22°C° 0 mm 1 mps 735 mmHg 89%
    23:00 +22°C° 0 mm 1 mps 735 mmHg 92%

    27 June, Thursday

    Time Temperature Precipitation Wind Pressure Humidity
    00:00 +21°C° 0 mm 1 mps 735 mmHg 94%
    01:00 +21°C° 0 mm 1 mps 735 mmHg 93%
    02:00 +21°C° 0 mm 1 mps 735 mmHg 93%
    03:00 +21°C° 0 mm 1 mps 735 mmHg 92%
    04:00 +22°C° 0 mm 1 mps 735 mmHg 91%
    05:00 +20°C° 0 mm 0 mps 736 mmHg 90%
    06:00 +21°C° 0 mm 0 mps 736 mmHg 88%
    07:00 +23°C° 0 mm 0 mps 736 mmHg 81%
    08:00 +26°C° 0 mm 0 mps 737 mmHg 73%
    09:00 +28°C° 0 mm 0 mps 737 mmHg 65%
    10:00 +29°C° 0 mm 0 mps 737 mmHg 60%
    11:00 +32°C° 0 mm 1 mps 737 mmHg 55%
    12:00 +34°C° 0 mm 1 mps 737 mmHg 50%
    13:00 +33°C° 0 mm 1 mps 736 mmHg 50%
    14:00 +33°C° 0 mm 1 mps 736 mmHg 49%
    15:00 +33°C° 0 mm 1 mps 736 mmHg 49%
    16:00 +32°C° 0 mm 1 mps 736 mmHg 58%
    17:00 +30°C° 0 mm 1 mps 736 mmHg 67%
    18:00 +29°C° 0 mm 1 mps 736 mmHg 76%
    19:00 +27°C° 0.2 mm 2 mps 736 mmHg 79%
    20:00 +25°C° 0.2 mm 2 mps 736 mmHg 83%
    21:00 +22°C° 0.2 mm 3 mps 736 mmHg 86%
    22:00 +21°C° 0 mm 2 mps 736 mmHg 85%
    23:00 +20°C° 0 mm 2 mps 736 mmHg 83%

    28 June, Friday

    Time Temperature Precipitation Wind Pressure Humidity
    00:00 +20°C° 0 mm 1 mps 736 mmHg 82%
    01:00 +20°C° 0 mm 1 mps 736 mmHg 81%
    02:00 +20°C° 0 mm 1 mps 736 mmHg 80%
    03:00 +20°C° 0 mm 1 mps 736 mmHg 79%
    04:00 +21°C° 0 mm 1 mps 736 mmHg 80%
    05:00 +22°C° 0 mm 1 mps 736 mmHg 81%
    06:00 +23°C° 0 mm 1 mps 736 mmHg 82%
    07:00 +25°C° 0 mm 1 mps 737 mmHg 74%
    08:00 +28°C° 0 mm 1 mps 737 mmHg 67%
    09:00 +30°C° 0 mm 1 mps 738 mmHg 60%
    10:00 +31°C° 0 mm 1 mps 737 mmHg 56%
    11:00 +32°C° 0 mm 1 mps 737 mmHg 52%
    12:00 +33°C° 0 mm 1 mps 737 mmHg 49%
    13:00 +33°C° 0 mm 1 mps 737 mmHg 51%
    14:00 +33°C° 0 mm 1 mps 736 mmHg 53%
    15:00 +33°C° 0 mm 1 mps 736 mmHg 56%
    16:00 +31°C° 0 mm 1 mps 736 mmHg 61%
    17:00 +28°C° 0 mm 0 mps 736 mmHg 67%
    18:00 +27°C° 0 mm 0 mps 735 mmHg 72%
    19:00 +27°C° 0.1 mm 1 mps 735 mmHg 75%
    20:00 +26°C° 0.1 mm 1 mps 736 mmHg 78%
    21:00 +24°C° 0.1 mm 1 mps 736 mmHg 81%
    22:00 +24°C° 0 mm 1 mps 736 mmHg 82%
    23:00 +23°C° 0 mm 1 mps 735 mmHg 83%

    29 June, Saturday

    Time Temperature Precipitation Wind Pressure Humidity
    00:00 +23°C° 0 mm 1 mps 735 mmHg 84%
    01:00 +22°C° 0 mm 1 mps 735 mmHg 83%
    02:00 +22°C° 0 mm 1 mps 735 mmHg 82%
    03:00 +22°C° 0 mm 1 mps 735 mmHg 81%
    04:00 +23°C° 0 mm 1 mps 736 mmHg 82%
    05:00 +23°C° 0 mm 1 mps 736 mmHg 83%
    06:00 +24°C° 0 mm 1 mps 736 mmHg 83%
    07:00 +26°C° 0 mm 1 mps 736 mmHg 77%
    08:00 +28°C° 0 mm 1 mps 736 mmHg 70%
    09:00 +30°C° 0 mm 1 mps 736 mmHg 63%
    10:00 +31°C° 0 mm 1 mps 736 mmHg 60%
    11:00 +32°C° 0 mm 1 mps 736 mmHg 56%
    12:00 +33°C° 0 mm 1 mps 736 mmHg 53%
    13:00 +33°C° 0.2 mm 1 mps 736 mmHg 56%
    14:00 +32°C° 0.2 mm 1 mps 735 mmHg 59%
    15:00 +32°C° 0.2 mm 1 mps 735 mmHg 62%
    16:00 +31°C° 0.1 mm 1 mps 734 mmHg 68%
    17:00 +29°C° 0.1 mm 1 mps 734 mmHg 74%
    18:00 +28°C° 0.1 mm 1 mps 734 mmHg 80%
    19:00 +27°C° 0.1 mm 1 mps 734 mmHg 82%
    20:00 +26°C° 0.1 mm 1 mps 734 mmHg 84%
    21:00 +24°C° 0.1 mm 1 mps 734 mmHg 86%
    22:00 +24°C° 0 mm 1 mps 734 mmHg 86%
    23:00 +24°C° 0 mm 1 mps 734 mmHg 86%
    Show more